Theta_e
317 321 324 320 321 322 322 328 327 329 328 325 326 324 320 317 317 314 313 312 312 315 311 310 310 307 307 307 305 306 305 309 313 306 308 310 304 303 303 303 303 303 303 303 302 302 302 302 302 301 301 305 310 312 313 314 314 315 315 315 315 315 315 315 315 315 316 316 316 317 317 317 318 317 318 320 320 321 321 322 321 321 321 320 320 320 320 321 321 320 321 322 323 323 323 324 324
320 322 322 320 321 320 323 329 332 334 331 325 325 323 318 314 315 319 320 317 316 312 310 311 311 310 307 306 305 306 306 307 308 306 306 306 303 304 303 303 303 303 303 302 302 302 302 302 302 301 300 304 309 312 313 314 313 315 315 315 315 315 315 315 315 315 316 316 316 316 317 317 317 317 318 320 320 321 321 321 320 320 320 319 319 319 318 319 319 319 320 321 322 322 322 323 322
320 321 320 320 321 321 330 329 329 336 330 329 334 324 314 315 319 325 325 320 317 310 311 311 310 311 307 308 307 307 310 307 305 304 304 303 303 304 303 304 303 304 303 302 303 302 302 302 301 301 300 304 309 312 313 313 314 314 314 314 314 315 315 315 315 315 315 315 315 315 316 317 316 317 319 319 320 319 319 319 319 319 319 319 319 318 317 317 317 318 319 321 321 322 322 323 322
319 321 319 321 323 326 344 338 335 337 327 329 330 319 317 323 324 324 321 317 314 309 311 310 309 309 306 310 307 305 308 306 304 305 305 303 304 305 304 304 303 303 303 303 303 302 302 302 302 301 301 303 309 312 312 313 313 313 313 313 314 314 314 314 314 314 314 313 314 314 316 317 316 317 319 319 319 318 318 318 318 318 318 319 318 317 317 316 316 317 318 319 320 321 321 322 323
318 319 316 321 327 326 335 330 330 332 327 329 319 315 321 325 324 321 315 312 311 308 309 309 310 307 305 308 306 306 308 306 303 303 305 304 304 304 304 304 304 304 303 303 303 302 302 303 303 303 301 302 309 311 311 312 312 312 312 312 313 313 314 313 313 312 312 312 312 313 314 316 315 316 318 318 317 317 318 318 317 317 317 317 317 316 316 316 316 317 318 318 318 320 321 322 323
318 317 316 319 318 317 323 320 321 326 328 326 317 318 321 320 320 318 313 310 308 307 307 308 309 306 306 308 305 305 307 306 304 303 304 304 305 304 304 304 304 304 303 303 303 303 303 303 303 304 303 302 307 310 310 311 311 311 311 312 312 312 312 312 311 311 311 311 311 312 313 314 314 314 315 316 316 317 317 317 316 316 316 315 315 315 315 315 316 317 318 317 317 317 320 321 321
318 318 323 323 315 317 328 325 325 327 320 315 315 317 317 317 313 311 311 308 307 305 305 307 306 306 307 307 306 304 304 304 304 304 305 304 304 304 304 304 304 304 303 304 303 303 303 304 304 304 304 303 305 308 309 309 309 310 311 311 311 311 311 311 310 310 309 310 310 311 312 312 313 313 314 315 315 316 316 316 316 315 315 314 314 315 315 315 315 315 315 316 316 316 317 318 320
318 319 324 329 323 324 331 325 325 324 312 309 311 312 313 314 310 309 310 307 306 306 305 306 305 307 307 304 308 307 303 304 304 305 305 304 304 304 304 303 303 304 304 304 304 304 304 304 304 304 304 303 303 306 308 307 307 308 310 310 310 310 310 310 309 308 308 308 308 309 310 310 312 313 314 314 315 315 315 315 315 314 314 314 314 315 316 315 315 315 314 315 316 316 315 316 318
315 317 321 328 324 324 328 320 317 316 312 311 308 310 312 310 308 309 310 307 305 306 307 307 305 308 307 304 309 306 302 304 304 304 305 304 304 304 304 303 303 303 304 305 305 305 304 304 304 304 304 303 303 303 305 305 305 307 309 309 309 309 308 308 307 307 306 305 306 307 308 309 311 312 314 314 315 314 314 314 314 314 313 314 315 315 316 316 316 315 315 315 316 315 315 316 317
316 317 321 326 324 321 320 317 317 315 311 311 307 309 312 309 307 307 308 307 305 306 306 305 304 306 306 305 308 304 303 305 303 305 304 304 304 304 303 303 303 304 305 305 305 305 305 305 304 304 304 303 303 303 303 303 304 305 306 307 308 308 306 306 305 304 304 304 303 303 305 307 310 311 313 313 313 314 313 314 313 313 313 314 315 315 315 315 315 315 315 315 315 315 316 317 317
324 324 327 329 324 319 317 316 321 321 313 309 308 309 310 307 306 306 305 305 305 305 305 303 304 307 305 307 309 305 303 304 303 305 304 305 304 303 303 303 304 304 305 305 305 305 305 305 305 305 304 303 303 303 303 302 302 302 303 305 306 305 304 302 301 300 300 300 298 299 303 307 309 310 312 312 312 313 313 313 313 313 313 314 315 315 315 315 315 315 315 314 315 315 315 315 316
325 327 335 334 323 318 317 319 322 326 319 310 310 309 306 305 304 305 305 305 305 305 306 304 305 306 306 309 309 303 303 304 304 305 305 305 304 303 303 304 305 305 305 305 305 305 305 305 305 305 304 303 303 303 303 302 300 299 300 301 302 302 300 299 298 297 296 295 294 296 302 308 309 310 311 312 312 312 312 313 313 313 313 314 314 314 315 315 316 315 315 314 315 316 315 314 316
327 331 338 327 316 317 316 317 318 320 322 315 310 306 302 304 305 306 307 306 305 305 306 304 304 305 307 309 308 306 304 305 305 304 304 304 304 303 304 304 305 305 306 305 305 305 305 305 305 305 304 303 303 303 303 302 300 299 299 299 300 300 299 298 297 297 295 294 293 294 301 309 310 311 312 312 312 311 312 312 312 313 313 314 313 314 315 315 316 316 314 314 314 315 315 314 315
327 332 335 321 310 317 318 315 315 315 321 318 308 303 302 305 306 307 307 306 306 306 304 301 303 306 307 307 309 313 308 304 306 304 304 304 304 304 304 304 304 305 306 305 305 305 305 304 304 304 304 303 303 303 303 303 300 299 299 299 299 299 299 298 297 296 296 295 294 293 300 309 311 311 312 312 312 312 312 312 312 312 312 313 313 314 315 315 315 314 313 313 313 314 315 313 314
321 326 329 324 312 314 315 312 314 316 320 315 305 302 304 305 305 308 306 306 307 304 302 300 302 305 307 306 308 312 306 304 306 304 304 304 304 304 304 304 305 305 305 305 305 305 305 304 304 304 303 304 303 303 303 302 301 299 299 299 299 299 299 299 298 297 296 295 294 292 298 308 312 312 313 312 312 312 313 312 312 312 312 312 312 313 314 315 314 313 312 313 313 313 314 314 314
319 326 327 325 315 312 311 309 311 315 317 311 303 302 304 304 303 306 304 304 306 302 302 304 302 303 306 306 306 306 304 305 305 304 304 304 304 304 304 304 305 306 306 306 306 305 305 304 304 303 303 303 303 303 303 302 301 300 299 299 299 299 299 299 298 297 297 296 295 293 295 307 312 312 313 312 313 313 313 313 312 312 312 312 312 312 314 315 314 312 312 312 313 313 313 314 314
321 331 330 321 316 316 313 311 311 312 315 311 304 303 305 305 303 303 301 301 306 304 305 306 302 302 306 306 304 304 304 305 304 304 304 304 304 303 304 304 304 305 306 306 306 305 305 304 304 303 304 303 303 303 303 302 300 300 299 299 299 299 299 299 299 298 297 296 296 294 294 303 312 312 312 312 313 313 313 313 312 312 312 312 312 314 314 315 314 312 311 312 313 313 313 314 315
330 333 323 318 322 322 317 314 311 309 311 310 306 304 305 305 304 303 301 304 308 306 306 306 303 302 303 303 303 304 304 305 304 304 304 303 303 304 304 304 304 305 305 306 306 306 305 304 304 304 304 303 304 303 303 301 300 300 300 300 299 299 299 299 299 298 297 297 296 296 293 299 310 313 312 312 312 313 313 313 313 312 312 313 313 314 314 314 314 312 311 312 313 313 313 315 316
335 328 315 323 331 318 311 312 309 307 308 309 307 303 303 304 304 303 303 308 309 307 309 307 306 306 303 302 302 303 303 304 305 304 303 304 303 303 304 304 304 305 305 306 306 306 305 304 304 304 304 303 303 303 302 301 301 301 300 300 299 299 299 299 300 299 298 297 297 297 294 295 306 313 312 312 313 313 313 314 314 312 312 313 313 314 313 313 313 311 311 312 312 313 314 315 315
322 320 317 330 327 312 306 307 307 305 305 307 307 302 303 304 304 304 305 308 309 309 310 307 308 311 309 304 300 302 303 303 304 304 303 303 304 304 304 304 304 305 305 305 306 305 305 304 304 304 304 303 303 303 302 301 301 301 300 300 300 299 300 299 300 299 298 298 297 297 296 294 302 312 313 312 313 313 313 314 315 313 313 313 314 314 313 313 313 310 310 311 311 312 313 314 314
312 315 320 320 312 309 306 305 306 304 303 306 307 303 304 304 303 306 306 308 312 311 308 308 309 311 313 309 300 300 302 302 303 302 303 303 304 304 304 304 304 305 305 305 306 305 305 305 304 304 304 303 303 303 302 301 301 301 300 300 300 300 300 300 299 299 299 298 298 297 297 295 297 308 313 312 312 313 313 313 314 313 313 313 314 315 313 313 313 311 310 309 309 311 312 313 313
309 309 310 308 305 308 306 304 306 303 302 305 306 304 304 303 304 307 307 308 313 311 306 309 310 307 310 308 300 300 300 300 301 301 302 303 303 304 304 304 305 304 304 305 306 305 305 305 304 304 304 303 303 302 302 301 301 301 300 300 300 300 300 300 299 299 299 298 299 298 297 297 295 301 310 312 312 313 313 312 313 312 313 314 314 315 313 312 313 312 311 310 308 309 311 312 312
309 307 303 305 305 306 306 305 307 303 303 306 306 305 304 305 306 306 306 307 310 310 307 307 307 302 301 302 301 305 306 300 299 302 303 303 304 304 304 305 305 304 304 305 305 305 305 305 305 304 304 303 303 302 302 302 301 301 300 300 300 301 301 300 300 299 299 298 298 298 297 297 296 296 302 310 312 312 312 312 313 312 312 314 314 314 314 313 313 311 311 311 309 309 310 311 312
312 311 304 304 303 304 306 306 307 305 305 306 304 304 304 307 306 303 305 307 306 306 302 299 298 296 296 303 306 305 304 299 300 304 304 304 304 304 304 304 305 304 304 305 305 305 305 305 305 304 304 303 303 302 302 302 301 301 301 300 300 301 301 301 300 300 300 299 298 298 298 297 296 295 297 305 311 313 312 312 312 312 312 314 314 314 314 314 313 312 312 312 310 309 309 311 312
313 311 305 304 303 305 305 305 308 307 306 305 303 306 307 307 304 303 308 307 304 303 299 297 297 298 300 308 313 308 303 299 301 304 303 304 304 304 305 304 304 304 304 305 305 305 305 305 305 304 304 303 303 302 302 302 302 301 301 301 300 301 302 302 301 301 300 300 299 298 298 298 296 295 295 300 308 312 312 312 312 312 312 313 314 314 313 314 315 314 313 312 310 308 309 311 312
308 308 306 306 305 305 305 304 308 309 308 305 304 308 308 305 303 307 311 306 304 303 302 301 301 303 305 309 311 309 307 301 300 303 303 304 304 304 305 304 305 304 305 305 305 305 305 305 305 304 304 303 303 302 302 302 302 302 301 301 301 301 302 302 302 301 300 300 300 299 298 298 297 295 294 297 305 310 312 312 312 312 312 312 314 314 313 314 315 316 315 315 312 310 310 311 312
306 307 306 306 306 305 305 305 306 307 307 306 306 309 310 306 306 311 310 304 304 306 305 303 303 305 305 308 306 299 300 301 300 302 302 302 303 303 305 305 305 305 305 305 305 305 305 305 305 304 304 303 303 303 302 302 302 302 302 301 301 301 301 302 302 302 301 301 300 300 299 298 298 296 294 295 302 309 311 311 312 312 311 312 314 314 314 314 315 316 316 317 316 314 314 314 315
305 307 305 305 307 305 305 305 306 305 305 306 306 307 308 305 308 312 308 305 306 307 308 305 305 307 304 306 306 298 297 300 300 300 300 302 304 304 305 305 305 305 305 305 305 305 304 305 305 304 304 303 303 303 303 302 302 302 302 302 301 301 301 302 302 301 301 301 301 300 300 299 298 298 296 294 298 306 310 310 311 312 311 311 313 314 315 315 315 316 317 318 318 318 318 317 319
304 306 304 306 308 306 305 306 305 305 306 305 305 308 312 308 311 314 308 306 307 306 309 308 306 308 306 306 307 302 298 298 299 299 302 304 305 305 305 305 306 305 305 305 305 305 305 304 304 304 304 304 303 303 303 302 302 302 302 302 302 302 302 302 302 302 301 301 301 300 300 300 299 298 298 296 295 302 308 310 310 311 312 311 312 314 316 317 316 316 317 318 318 320 320 319 320
304 304 307 310 312 308 305 306 306 305 306 305 306 314 325 321 316 313 305 305 308 307 310 312 312 310 308 308 308 307 300 296 298 301 303 305 305 305 305 306 305 305 305 305 305 305 304 304 304 304 304 304 303 303 303 302 302 302 302 302 302 302 302 302 302 302 301 301 301 301 301 300 300 299 298 298 295 297 302 307 310 310 311 311 311 313 315 316 317 317 318 318 318 319 320 320 320
309 304 312 317 312 310 308 308 310 306 306 306 307 316 326 324 319 311 303 304 307 310 314 314 315 312 310 310 308 310 304 296 299 302 304 304 305 305 305 306 305 305 305 305 306 305 304 304 304 304 303 303 303 303 302 302 302 302 303 302 302 302 302 302 302 301 301 301 301 301 301 300 300 300 299 299 298 296 297 301 307 309 310 310 311 312 313 314 315 316 318 318 318 319 319 319 320
321 307 317 323 311 315 313 307 310 308 306 307 309 317 322 318 315 308 303 306 306 309 315 314 314 313 312 312 309 311 307 298 297 303 305 305 306 306 305 306 306 305 305 305 305 305 304 304 303 303 303 303 303 302 302 302 302 302 303 303 302 302 302 302 302 301 301 301 301 301 301 301 300 300 300 300 299 298 296 296 300 304 307 309 311 311 312 313 313 314 316 317 318 318 319 319 320
326 313 317 321 313 320 316 308 308 307 307 309 310 315 320 316 312 307 304 306 307 309 313 313 314 314 312 312 309 310 310 305 302 304 306 306 306 306 306 306 306 305 305 305 305 305 304 304 303 303 303 303 303 303 303 302 303 303 303 303 303 303 302 302 301 301 301 302 302 302 302 302 301 301 301 301 300 299 298 297 296 298 302 305 308 311 312 312 312 313 314 315 316 317 318 318 319
321 317 316 316 314 317 317 313 308 306 309 310 310 311 315 316 312 310 307 305 306 308 311 312 311 312 312 310 310 310 312 315 310 305 305 306 306 307 307 306 306 306 305 305 305 305 304 304 303 303 303 303 303 303 303 303 303 303 303 303 303 303 302 302 302 301 302 302 302 302 303 302 302 301 301 301 301 300 298 298 297 296 297 299 304 308 310 311 312 312 312 312 313 315 316 316 317
315 317 314 315 315 315 321 321 309 307 312 311 311 312 313 313 309 308 307 304 306 307 307 309 308 309 309 308 311 312 314 318 309 303 305 307 307 307 307 306 306 306 305 305 305 305 304 304 304 303 303 303 304 304 304 303 303 303 303 303 303 303 302 302 302 302 301 302 302 302 302 302 302 302 301 301 301 300 299 298 298 297 296 296 298 300 305 310 311 311 311 311 312 312 313 313 314
318 320 320 318 318 320 323 319 309 306 313 316 315 314 314 312 309 309 307 305 306 307 306 308 309 309 309 309 311 312 318 321 308 303 306 306 307 307 307 306 306 305 305 305 305 305 305 304 304 304 303 304 304 304 304 304 304 303 303 303 303 303 303 302 302 302 302 301 302 301 302 302 302 302 301 301 301 301 300 299 299 298 297 296 296 296 299 303 307 310 310 310 311 311 311 312 312
319 324 327 323 320 325 321 312 309 306 311 318 314 314 315 313 313 310 308 307 309 311 310 311 311 312 313 313 313 314 318 315 304 303 307 306 307 307 306 307 305 306 305 305 305 305 305 304 304 304 304 304 304 304 304 304 304 303 303 303 303 303 302 303 302 302 302 301 302 301 301 302 302 302 301 301 301 301 301 300 300 299 298 298 296 296 296 297 301 306 309 310 311 311 311 311 312
320 323 326 324 320 325 318 308 311 310 311 317 312 314 316 313 311 309 309 311 312 314 313 314 315 314 315 314 315 316 315 311 307 307 307 306 307 307 306 306 306 306 305 305 306 305 305 305 305 305 305 305 305 305 305 305 305 304 303 303 302 303 302 303 302 302 302 302 302 302 302 301 301 302 302 302 301 301 301 301 301 300 299 299 298 297 296 296 297 300 302 306 308 309 310 310 310
324 322 322 324 320 320 317 308 312 312 311 318 317 315 315 312 311 315 319 318 315 313 312 313 314 315 317 315 316 317 316 318 318 312 306 306 308 307 307 307 306 306 305 305 305 306 306 306 306 306 306 306 305 305 305 305 304 304 303 303 302 303 302 302 303 302 302 302 302 302 302 302 301 301 302 302 302 302 301 301 301 301 300 300 299 298 298 297 296 296 297 299 300 302 307 309 310
321 321 319 321 316 315 318 315 314 312 308 314 317 314 315 316 319 323 321 317 315 313 313 313 311 313 316 313 313 316 320 323 321 315 308 306 307 307 307 307 306 306 306 306 306 306 306 306 306 306 306 306 305 306 305 304 304 303 303 303 302 302 302 303 303 303 303 303 303 303 303 303 302 302 301 302 302 302 302 302 301 301 301 301 300 300 299 298 297 297 296 296 296 296 299 304 307
318 317 317 319 315 311 316 316 313 314 309 308 313 318 322 324 327 328 320 316 316 314 315 315 311 311 312 311 312 315 319 321 320 321 313 305 305 306 307 306 307 306 306 306 306 306 306 306 306 306 305 306 305 305 305 304 304 304 304 303 303 303 303 303 303 303 304 304 304 304 303 303 302 302 302 301 302 302 302 302 302 302 301 301 301 301 300 300 299 298 297 296 296 295 295 297 299
318 314 311 311 311 310 314 316 316 323 318 308 310 316 330 336 330 325 326 326 324 319 315 312 316 318 315 316 320 318 318 317 317 318 310 304 304 305 306 306 305 306 306 305 306 306 306 306 306 306 306 305 305 305 304 305 305 304 305 304 304 304 303 304 303 303 304 304 304 304 304 303 303 303 303 302 302 302 302 302 302 302 302 302 302 301 301 301 300 299 298 297 296 296 296 296 296
318 311 307 308 310 311 316 317 316 322 317 308 307 311 325 337 328 321 326 331 329 323 316 315 324 327 323 323 325 321 320 318 316 314 308 303 304 304 306 306 305 306 306 306 306 306 306 306 306 305 305 305 306 306 305 305 305 304 305 304 304 304 303 303 303 303 303 304 304 304 304 303 303 303 303 303 302 302 302 302 302 302 301 301 301 301 301 301 301 300 300 299 298 297 297 296 296
315 308 307 310 310 311 315 316 315 319 316 312 311 311 316 329 330 326 321 322 322 318 312 314 318 321 324 327 327 326 325 322 320 322 316 305 301 303 305 305 306 306 306 306 306 307 306 306 306 305 306 306 307 306 306 305 304 304 304 304 304 304 303 303 303 303 303 303 303 303 303 303 303 303 303 303 302 302 302 302 302 302 301 301 301 301 301 301 301 301 300 300 300 299 298 297 297
312 306 307 308 308 311 312 314 318 316 315 320 320 311 313 331 339 327 315 314 316 315 316 316 313 313 315 318 322 324 325 321 320 324 317 303 300 303 304 305 306 306 307 307 307 307 307 307 306 306 306 306 306 305 304 304 303 304 304 304 304 303 303 303 303 303 303 303 303 303 303 303 303 303 303 303 302 302 302 302 302 302 301 301 301 301 301 301 300 300 300 300 300 300 299 298 298
308 304 306 307 308 311 310 313 318 316 318 325 322 310 312 333 343 324 310 316 321 319 321 320 317 318 316 313 314 316 319 319 320 315 304 300 302 304 304 305 306 306 306 306 306 306 306 306 306 305 305 304 304 303 303 303 303 303 303 303 303 302 302 302 302 302 302 302 302 302 302 302 302 302 302 302 302 302 302 302 302 302 302 301 301 301 301 301 300 300 300 300 299 299 299 299 298
305 306 309 311 313 312 312 316 317 317 327 327 315 310 312 323 336 326 316 323 326 321 319 317 317 317 315 314 314 315 316 316 317 312 301 300 303 303 304 305 304 304 305 304 305 304 304 304 304 303 303 303 303 303 302 302 302 302 302 302 301 301 301 301 301 301 301 301 301 301 301 301 301 301 301 302 302 302 302 302 302 302 302 301 301 301 301 301 300 300 299 299 299 298 298 298 298
306 312 315 315 320 317 318 328 321 317 333 325 311 311 312 317 328 324 320 325 323 319 316 315 314 313 313 313 313 315 316 314 314 315 308 302 301 302 303 303 303 304 304 303 303 303 303 302 302 302 301 301 301 301 301 301 301 301 301 301 300 300 300 300 300 299 299 299 299 299 299 299 300 300 300 300 300 301 301 301 302 301 301 301 301 301 301 301 300 300 300 299 299 298 297 297 297
309 318 325 322 329 326 324 335 326 321 329 316 309 313 312 319 325 320 322 325 320 317 316 316 315 314 313 312 311 313 314 315 315 316 315 306 300 301 302 302 302 303 302 302 302 302 302 301 300 300 300 300 300 300 300 300 300 300 299 300 299 299 299 299 298 298 298 298 298 298 298 298 298 298 298 298 299 299 300 300 300 300 301 301 301 301 301 301 301 300 300 300 299 298 297 297 296
311 320 328 325 327 323 325 333 320 317 322 311 308 313 316 322 319 316 322 319 315 313 314 316 317 316 314 312 313 313 313 315 315 314 315 309 300 300 301 301 302 302 302 302 302 302 301 300 300 299 299 299 299 299 299 299 299 299 299 299 299 298 298 298 298 297 297 297 297 297 297 297 297 297 297 297 297 298 298 298 298 299 299 299 300 300 300 300 300 300 300 300 299 299 298 298 297
312 314 318 322 324 316 321 330 318 314 322 318 311 314 326 325 311 313 317 313 312 312 312 314 316 317 316 314 314 314 313 315 315 313 311 305 300 301 302 302 302 302 302 302 302 301 300 299 299 299 299 299 299 299 299 299 298 298 298 298 298 298 298 298 297 297 297 297 296 296 296 296 296 296 296 296 296 297 297 297 297 297 297 298 298 298 298 299 299 299 299 299 299 298 298 298 298
310 308 313 317 320 320 319 317 315 315 320 326 319 318 330 322 310 315 316 313 313 311 311 313 314 314 313 314 315 314 315 315 313 314 310 303 299 301 302 301 302 302 302 301 301 300 299 299 299 299 299 298 298 298 298 298 298 298 298 298 298 298 298 297 297 296 296 296 296 295 295 294 294 294 295 295 295 296 296 296 296 296 296 296 297 297 297 297 297 297 297 297 297 297 297 297 297
309 312 318 312 308 320 322 310 308 310 317 326 321 321 329 319 313 319 316 312 312 310 312 313 312 312 312 315 316 315 315 314 312 313 309 302 300 301 301 301 301 301 300 300 299 299 299 299 298 298 298 298 298 298 298 298 298 297 297 297 297 297 296 296 295 295 295 295 295 294 294 293 293 293 293 293 294 294 294 295 295 295 295 295 295 296 296 296 296 296 296 296 296 296 296 296 296
310 314 314 308 306 315 319 315 318 317 321 330 322 320 329 324 320 321 314 312 314 312 314 313 310 311 314 316 318 316 315 312 311 310 306 301 299 301 300 300 300 298 298 298 298 298 298 298 298 298 298 297 297 297 297 297 297 297 296 296 295 295 294 294 293 293 293 293 293 292 291 291 290 290 291 291 292 292 292 292 292 293 293 293 293 294 294 294 294 294 294 294 294 294 295 295 295
309 310 306 307 314 318 316 318 324 320 319 328 327 322 321 321 326 325 315 314 316 314 314 313 311 312 316 317 317 316 313 311 310 310 308 302 299 300 299 298 298 297 297 297 297 298 297 297 297 297 296 296 296 296 296 296 296 295 294 294 293 292 292 291 291 291 291 290 289 289 289 288 288 288 288 289 290 290 290 290 290 290 290 291 291 290 290 290 290 290 289 289 289 290 291 291 291
304 307 304 307 316 318 316 316 319 320 320 323 329 329 324 324 330 329 320 315 314 314 314 313 313 314 315 317 317 315 313 312 310 310 310 302 297 298 298 297 297 297 297 297 297 297 296 296 296 296 295 295 295 295 295 294 294 293 293 292 291 290 289 289 289 289 288 288 287 287 286 286 286 286 286 286 287 287 288 288 288 287 287 288 289 289 288 288 287 286 285 284 284 285 286 287 288
309 313 311 310 311 311 312 312 311 319 326 324 323 328 335 335 327 325 323 315 310 312 313 312 314 315 314 315 316 314 314 313 309 309 308 300 296 297 296 296 296 296 296 296 296 296 295 295 295 294 294 293 293 293 293 293 292 292 291 290 289 288 287 287 287 286 286 286 285 285 284 285 284 284 284 284 284 284 285 286 287 286 284 285 287 288 288 288 286 285 283 282 282 283 283 285 286
312 319 319 316 316 316 319 318 312 312 318 322 321 321 330 332 320 320 324 318 312 311 311 312 314 316 316 314 314 315 314 312 310 309 305 297 295 296 295 295 296 295 295 295 295 295 294 293 293 292 292 292 291 291 291 291 290 290 289 288 288 287 286 286 285 285 284 284 284 284 284 283 283 282 283 282 282 282 282 283 284 285 283 282 284 287 288 288 286 284 282 282 282 282 282 283 284
Wind_Speed
6 6 5 1 4 1 3 5 2 2 3 2 2 1 2 1 1 1 2 2 1 2 3 2 3 3 1 2 4 5 4 5 5 3 3 5 3 5 5 5 5 5 6 7 6 6 8 11 13 10 9 9 10 11 11 13 13 14 14 14 14 14 15 15 15 15 16 16 17 17 18 18 18 18 19 20 21 21 21 20 21 21 21 22 21 20 20 19 21 22 20 19 20 22 22 20 20
7 6 4 1 4 3 1 3 2 3 5 2 3 3 3 1 1 4 6 5 4 2 1 3 3 1 1 1 2 1 4 5 5 3 3 4 4 7 6 5 5 6 6 6 6 7 9 12 13 10 9 10 11 11 12 12 13 14 14 14 14 14 15 15 15 15 16 17 17 17 18 19 19 18 19 22 22 21 21 20 21 21 22 22 22 22 21 20 21 22 20 19 19 20 21 20 20
7 5 2 2 3 4 2 4 2 1 4 1 4 4 2 1 5 7 7 7 6 3 2 2 1 1 2 2 1 1 4 4 4 2 3 4 4 5 5 6 5 6 6 6 6 7 9 11 12 10 10 10 10 11 11 12 13 14 14 14 14 14 14 14 15 15 16 16 17 17 17 18 18 18 20 22 21 22 22 22 22 22 22 21 21 21 22 22 22 23 21 19 18 19 21 20 19
6 3 0 2 2 4 4 4 2 4 2 3 2 3 3 5 7 6 6 6 5 3 2 2 1 2 3 1 2 1 4 4 4 4 2 5 5 4 4 4 5 6 7 6 6 7 9 10 11 10 10 10 10 11 11 12 13 13 14 14 13 13 14 14 15 15 16 16 16 17 17 18 18 18 20 21 21 22 22 23 23 23 23 22 22 21 23 23 21 22 22 21 19 18 19 19 18
6 6 2 3 3 2 3 3 2 3 3 4 0 4 5 6 6 4 4 4 4 2 1 3 1 2 2 3 2 1 4 2 3 7 4 3 4 4 4 4 5 6 7 6 6 7 8 9 10 11 12 10 10 11 11 12 13 13 14 13 13 13 13 14 15 15 16 16 16 17 17 18 19 18 19 20 21 22 22 23 23 23 24 24 24 22 22 22 21 21 21 21 22 19 19 19 18
8 10 8 7 4 2 3 2 2 1 4 4 2 5 6 6 5 4 3 4 3 2 3 2 1 1 1 3 2 4 4 1 2 7 6 3 3 3 4 5 5 6 7 6 6 7 7 9 10 11 12 11 10 10 11 12 13 13 13 13 13 13 13 14 14 15 15 16 16 17 17 19 19 19 19 19 19 20 21 23 23 24 24 24 23 22 21 20 20 20 20 20 22 22 20 20 19
6 4 6 8 4 2 3 2 3 3 3 4 4 5 5 5 5 3 2 2 0 1 1 2 1 2 2 2 2 5 5 3 3 4 5 2 2 2 4 5 5 6 6 6 6 6 7 8 10 11 12 13 11 10 11 12 13 13 13 13 13 13 14 14 15 15 16 16 16 17 18 19 19 20 20 18 19 19 21 22 23 24 25 25 23 23 21 19 19 20 21 20 21 21 22 21 20
5 2 2 5 3 4 4 1 3 3 2 2 4 5 5 5 5 5 1 0 0 2 0 3 1 2 4 2 2 4 5 7 4 3 5 3 2 2 4 5 6 5 5 6 6 7 8 9 10 11 12 13 12 10 11 12 13 13 12 12 13 13 14 14 15 16 16 16 17 17 18 19 20 19 19 19 19 19 21 22 23 24 25 24 23 22 21 19 18 18 20 20 20 20 22 22 21
7 3 1 4 3 3 2 1 3 3 3 4 4 5 4 3 5 4 3 2 2 1 3 5 3 3 4 3 3 4 3 8 6 5 6 3 1 2 5 6 7 5 6 7 8 9 10 10 11 12 12 13 13 11 11 12 13 13 12 12 13 13 14 14 15 16 16 16 17 18 19 19 20 19 18 18 18 19 21 22 23 24 24 23 22 21 20 19 19 18 19 19 20 19 21 21 20
6 4 2 3 3 2 3 2 3 3 4 4 4 6 4 4 5 3 3 3 2 2 4 4 3 3 2 2 4 3 2 7 8 8 7 4 2 3 5 6 7 6 7 8 10 11 11 11 11 12 12 12 13 12 12 13 14 13 12 12 12 13 14 14 15 16 16 16 17 18 19 20 19 18 17 17 18 19 20 21 22 24 23 21 21 20 19 18 19 19 18 19 20 19 20 20 19
4 4 3 4 3 1 2 3 4 4 5 4 5 7 6 6 5 1 2 3 3 3 3 2 2 4 1 3 4 2 3 8 11 10 7 5 3 4 5 5 6 7 8 9 10 11 11 11 11 12 12 12 13 13 14 14 14 14 12 12 12 13 14 14 15 16 16 16 18 19 20 20 18 16 16 17 18 19 20 21 21 23 22 21 21 20 20 20 19 19 19 19 20 19 19 20 19
3 2 4 4 2 2 2 3 5 6 6 4 3 5 4 7 5 2 3 3 2 3 5 4 3 3 2 3 3 4 4 9 13 9 6 6 3 3 5 4 5 7 9 10 9 10 10 10 11 11 11 12 13 13 14 14 14 14 13 12 13 14 14 14 15 16 16 17 19 19 20 20 18 15 16 17 18 19 19 20 21 22 21 21 21 21 22 23 21 19 19 19 19 19 18 19 18
4 2 5 3 2 2 2 2 4 5 6 4 3 3 4 7 4 6 6 3 3 2 6 6 3 2 1 3 3 5 5 9 11 8 8 6 4 3 4 5 6 7 8 9 9 9 9 9 9 10 11 11 12 12 14 14 14 14 13 13 13 14 14 15 16 16 17 18 19 19 20 20 17 15 16 17 19 19 19 21 21 21 21 21 21 22 23 23 20 17 18 19 19 19 17 18 18
3 3 5 3 1 2 3 1 3 2 5 5 2 1 4 3 4 6 6 3 6 5 3 4 5 2 2 2 3 5 4 6 10 10 9 7 5 5 5 6 7 8 8 8 9 9 9 8 9 9 10 10 11 12 13 14 14 14 13 13 13 14 14 15 16 16 17 18 19 19 21 19 16 16 16 18 19 20 21 22 21 22 23 22 21 21 23 23 18 15 17 17 16 15 14 16 17
3 3 4 4 2 1 3 1 0 3 4 4 0 2 3 1 4 4 5 4 6 5 1 1 4 2 3 2 2 5 4 3 10 11 9 9 8 7 7 7 7 8 8 9 9 10 9 8 8 8 9 9 10 11 13 14 14 14 13 12 13 13 14 15 16 16 16 18 19 19 21 19 16 15 16 18 20 21 22 23 22 22 23 22 21 21 22 21 16 15 16 15 12 12 11 13 15
3 4 5 3 1 1 3 2 2 2 5 4 1 1 4 2 3 2 4 4 3 2 0 3 3 1 4 4 5 5 4 3 11 12 11 11 10 9 9 8 8 7 8 9 9 10 9 8 8 8 8 8 9 10 12 14 13 13 12 12 12 12 13 14 15 16 16 17 19 19 21 19 16 15 16 18 21 22 22 24 22 20 22 21 20 22 22 19 16 15 14 11 9 9 10 11 12
3 4 5 2 2 2 4 4 5 4 5 4 3 0 6 3 2 2 1 2 2 3 2 4 3 2 6 5 4 3 3 6 11 12 13 12 12 11 11 10 9 8 8 9 9 10 9 8 7 7 6 7 8 9 11 12 12 11 11 11 11 12 12 14 15 15 16 16 18 19 21 20 16 15 16 18 20 22 22 24 22 19 21 20 19 22 21 16 14 13 10 8 7 7 8 9 9
4 4 4 1 4 4 6 8 7 4 2 2 2 1 6 1 3 1 1 2 3 3 4 5 5 6 10 9 7 4 3 7 12 13 14 14 13 12 13 11 10 10 10 9 9 9 9 8 7 6 6 6 7 8 10 10 10 9 9 10 10 11 12 13 14 15 15 16 17 19 21 21 17 14 16 18 20 22 23 25 24 20 21 20 19 20 18 14 12 10 7 7 6 4 6 7 8
4 3 2 3 6 5 5 7 6 3 2 1 1 1 3 4 1 1 1 4 5 4 6 4 5 10 12 13 12 9 6 9 13 15 15 15 14 14 14 13 11 11 10 9 9 9 9 8 7 6 6 6 6 7 8 8 8 8 8 9 10 11 11 13 13 14 15 16 17 18 20 21 18 14 15 18 20 23 23 25 26 22 21 20 20 21 18 13 10 7 4 6 5 3 3 4 5
2 4 2 5 6 4 4 5 4 3 2 2 1 1 1 3 2 0 1 5 5 4 6 3 5 9 9 9 9 9 9 11 14 15 16 16 16 16 16 15 13 12 11 10 10 9 9 8 7 6 6 6 6 7 7 8 8 8 8 8 9 10 11 12 13 13 14 15 16 17 19 21 20 16 15 18 20 22 23 24 25 23 22 19 21 22 18 12 7 6 5 5 4 3 4 2 3
2 3 3 5 4 2 3 5 3 3 3 3 3 2 1 3 1 1 1 4 7 6 7 7 8 8 7 7 4 7 9 12 13 14 15 16 18 17 17 16 14 14 12 11 10 8 8 8 7 6 7 7 7 8 8 8 8 8 8 8 8 9 10 11 12 13 13 15 16 17 18 19 21 17 16 17 19 21 23 24 24 24 23 21 22 22 18 13 8 6 5 5 4 4 3 2 4
3 1 3 5 3 2 1 2 1 1 4 4 4 3 2 1 0 3 5 3 6 4 5 9 9 8 7 5 2 6 7 10 12 13 15 17 19 18 17 16 15 14 13 12 10 7 7 7 6 7 7 7 8 9 9 9 9 9 8 8 8 9 10 10 11 12 13 15 16 17 18 19 21 19 17 17 18 21 23 25 24 24 23 22 22 22 19 14 12 11 7 4 3 4 4 4 5
2 1 1 4 3 2 2 2 1 2 6 5 4 3 1 2 3 2 6 9 10 6 5 7 7 6 6 2 3 6 7 9 12 15 18 19 19 19 17 15 15 14 12 12 10 8 8 7 7 7 7 7 7 8 9 9 9 9 8 8 8 8 9 10 11 12 13 15 16 17 18 19 20 21 19 18 18 21 23 24 24 24 23 22 21 21 21 16 13 14 9 4 3 3 4 4 5
4 1 1 2 2 1 2 2 1 2 5 5 3 1 1 1 3 1 5 13 11 9 7 5 4 2 3 3 5 6 8 10 14 17 18 19 19 18 16 16 15 15 14 13 11 9 8 7 7 7 7 7 7 8 8 8 9 9 8 9 8 8 8 9 10 12 13 14 16 17 18 18 19 20 20 19 17 19 21 22 23 23 23 21 21 21 21 18 14 13 9 6 4 2 5 6 6
4 3 2 1 1 2 3 2 3 1 3 2 1 1 4 5 1 1 10 13 8 9 8 7 5 2 2 4 5 6 7 10 13 15 16 18 18 18 17 16 16 16 15 13 11 10 8 8 8 8 7 7 7 8 8 8 9 9 9 9 9 8 7 8 10 11 12 14 15 17 18 19 19 19 20 19 17 17 20 21 22 23 23 21 21 21 21 19 18 15 12 10 8 1 6 6 4
2 3 2 3 2 4 3 0 3 2 1 0 1 4 5 4 1 4 12 9 4 5 4 5 5 5 6 5 6 7 6 9 12 13 14 15 15 17 17 15 15 14 13 12 10 10 8 9 9 8 8 7 8 8 9 9 10 10 10 10 9 8 8 9 10 11 12 14 15 17 18 19 19 19 19 19 17 17 19 20 21 22 24 22 21 21 20 18 19 18 15 14 12 7 4 5 4
3 6 5 5 2 4 3 0 4 4 2 1 3 5 4 2 2 4 7 4 5 5 3 2 5 7 8 5 6 6 6 11 11 10 12 13 13 15 15 14 14 12 11 10 9 8 8 9 9 8 8 8 9 9 9 10 11 11 11 11 10 9 8 9 10 11 13 14 15 16 17 19 19 19 19 18 17 17 18 19 20 21 23 23 21 20 20 17 17 17 17 16 13 8 4 3 3
4 5 5 6 5 2 3 2 4 3 1 2 4 4 3 3 1 6 5 5 5 3 3 2 3 6 6 5 6 5 8 12 11 9 12 15 14 14 15 13 13 11 10 9 7 7 8 9 8 8 8 8 9 9 10 11 11 12 12 11 10 9 9 10 11 12 13 13 15 15 16 18 19 19 19 19 17 16 16 17 19 20 21 23 22 20 20 18 15 15 16 16 14 9 4 4 6
3 3 3 5 7 2 3 2 3 3 1 3 3 2 4 1 6 10 6 6 5 2 3 5 2 5 5 5 6 5 9 12 11 12 17 18 16 15 15 14 12 11 9 8 7 8 8 7 7 7 8 9 10 10 11 11 12 12 12 11 10 9 10 11 11 12 12 13 14 15 16 17 18 19 19 19 18 16 15 16 18 19 20 21 21 20 19 18 15 13 15 15 16 14 8 7 9
2 2 4 2 6 3 4 2 4 3 1 2 1 3 5 6 10 10 6 6 4 3 4 5 4 5 5 5 5 5 9 10 12 17 19 18 17 16 16 14 13 11 10 8 8 8 7 7 7 7 8 9 10 10 11 11 12 12 12 11 11 10 11 12 12 12 12 12 13 13 14 16 16 18 19 19 19 17 15 15 16 17 19 20 20 20 19 19 17 14 14 13 14 16 13 10 10
1 1 3 2 1 3 4 2 4 2 0 4 4 1 6 8 10 8 6 3 0 3 6 5 5 5 5 5 5 6 8 10 13 18 19 18 17 16 15 14 12 11 10 9 9 7 7 7 7 7 8 9 10 10 11 11 12 12 12 11 11 12 12 13 13 13 13 13 12 12 13 15 15 16 18 19 19 19 17 16 15 16 17 18 19 19 18 19 19 17 15 12 11 14 15 14 13
3 1 2 3 0 4 6 2 3 1 2 5 5 2 6 7 9 6 4 4 4 4 7 6 6 6 5 5 5 5 8 11 14 16 16 15 14 13 12 12 11 11 10 9 8 7 7 7 7 8 8 9 9 10 11 11 12 12 12 12 12 12 13 14 14 14 14 13 13 12 12 13 14 16 17 17 18 19 19 18 16 16 16 17 18 18 17 17 18 18 17 14 12 12 13 13 13
4 1 2 2 1 3 4 1 3 2 2 5 3 2 5 4 5 5 3 4 7 5 7 7 6 6 5 5 5 5 6 9 11 13 10 8 8 8 9 9 9 9 9 8 7 7 7 6 6 8 8 8 9 9 10 11 12 12 12 12 12 12 13 13 14 14 14 14 13 13 13 13 14 15 16 17 17 18 19 19 18 17 16 16 16 16 16 15 16 16 17 16 14 13 11 10 10
4 3 1 2 1 2 3 1 3 5 3 3 3 2 7 8 7 9 7 4 6 6 8 8 6 6 5 5 5 5 5 6 8 10 8 5 4 5 6 7 6 6 6 7 6 7 7 6 6 7 8 8 8 9 10 11 11 12 12 12 12 12 12 13 14 14 14 14 14 14 14 14 14 14 15 16 16 17 17 18 18 18 17 17 16 16 15 14 14 14 15 15 14 14 12 11 10
2 0 1 2 1 2 3 2 2 7 5 2 3 4 11 13 10 11 9 4 5 8 7 7 6 6 6 5 5 5 5 6 9 10 6 4 3 3 4 4 3 3 5 6 6 7 7 6 7 7 7 7 8 9 10 11 11 11 11 11 11 10 11 12 13 14 14 14 15 15 15 15 14 14 14 15 16 17 16 16 17 17 18 18 16 16 15 15 15 15 14 13 13 12 12 11 10
5 4 4 2 2 3 4 4 3 4 4 4 4 6 10 13 12 11 9 4 3 7 6 5 6 6 6 5 5 6 5 7 8 8 4 2 1 1 2 1 1 2 4 5 6 7 6 6 7 6 6 7 8 9 10 11 11 11 12 12 12 12 13 13 13 14 15 15 14 14 14 14 14 13 13 14 15 16 16 16 16 16 17 17 18 17 17 17 17 16 15 13 12 11 11 12 11
5 4 4 3 1 4 3 3 5 3 2 5 4 5 10 12 13 12 8 5 4 6 5 6 6 5 6 5 6 6 6 7 8 7 4 3 1 1 0 0 1 2 3 4 5 5 5 6 6 6 6 7 8 9 10 11 12 12 13 13 14 15 15 14 15 16 15 14 14 14 14 14 14 14 13 13 13 14 15 15 15 15 16 16 17 17 17 17 16 15 15 14 13 13 12 12 13
5 5 3 2 1 5 3 1 5 4 2 4 2 6 11 11 12 10 6 5 5 6 5 6 6 6 5 5 7 7 5 7 8 6 5 4 3 2 2 2 2 2 2 3 4 4 4 5 6 6 7 7 8 9 10 11 11 12 13 13 15 15 15 15 16 16 15 15 15 15 15 15 15 14 14 13 13 13 13 14 14 15 15 15 15 15 16 15 15 15 15 15 14 14 13 12 14
4 3 3 2 1 4 4 2 4 4 2 4 5 7 12 12 10 9 6 4 6 5 5 6 5 5 5 5 6 6 5 6 6 5 5 5 4 3 4 3 3 3 3 3 4 4 5 5 6 7 7 8 9 9 10 10 10 11 12 12 14 14 14 15 15 15 15 16 16 17 17 16 15 15 14 14 13 13 13 13 13 13 13 15 15 15 15 15 15 15 15 15 14 14 12 11 14
3 3 3 1 3 3 3 3 5 4 1 4 5 5 9 9 7 7 5 4 5 5 5 6 6 6 6 5 4 5 5 5 5 6 6 5 5 4 4 4 4 4 4 4 5 6 6 6 6 7 7 8 8 9 9 10 10 11 11 11 12 12 12 13 13 13 14 15 15 16 17 16 15 14 14 14 14 13 13 13 12 12 11 12 14 15 15 15 15 15 14 14 14 15 14 11 12
3 2 4 2 1 1 3 5 6 4 1 2 4 5 6 5 4 6 5 3 4 5 4 5 5 6 5 4 4 5 5 5 6 6 6 6 5 4 3 3 4 4 4 5 5 6 6 5 6 6 7 7 7 8 8 9 10 10 10 10 10 11 12 13 14 14 15 16 16 17 17 17 16 15 14 14 14 14 14 13 13 12 11 10 11 13 14 14 15 15 15 14 13 13 13 11 12
3 1 3 4 3 3 4 6 5 4 3 2 4 4 5 5 3 6 5 6 5 5 3 4 5 5 4 5 5 5 5 5 5 6 6 6 6 5 3 2 3 4 4 5 6 6 5 5 5 5 5 6 6 6 7 7 9 10 10 10 10 12 13 14 15 17 17 17 17 17 16 16 15 15 15 14 14 14 14 14 13 13 12 11 10 11 12 12 13 14 14 15 14 13 11 11 12
1 1 3 4 4 2 1 4 3 2 2 2 3 1 4 6 5 6 4 6 7 6 3 4 5 5 4 5 5 4 4 4 5 6 6 6 6 6 5 5 7 6 5 5 5 5 4 4 4 4 5 5 5 6 6 7 9 9 9 9 10 11 11 13 14 14 15 15 15 15 14 15 15 14 14 14 14 14 14 14 14 14 14 13 12 11 11 11 11 12 12 13 14 13 13 13 14
0 2 4 4 3 2 1 3 2 1 3 3 4 2 2 4 6 6 3 4 6 6 4 4 5 4 4 5 5 5 5 4 4 5 5 5 6 6 6 7 7 6 5 5 4 5 4 3 3 4 5 6 6 6 7 8 8 8 7 8 9 9 10 12 12 13 13 14 14 14 14 14 14 14 14 14 14 14 14 14 14 14 15 14 14 13 12 11 11 10 10 10 10 11 12 13 14
2 3 4 3 3 3 3 4 1 1 2 3 4 3 0 5 6 5 3 0 4 6 6 5 5 3 2 1 3 4 5 4 4 4 4 5 4 5 6 8 9 8 8 8 8 8 7 7 7 7 7 7 7 7 7 8 8 8 9 9 10 11 11 12 12 13 14 15 15 16 16 15 15 15 15 14 14 14 14 14 14 14 14 15 15 15 15 14 13 11 10 9 9 9 9 10 12
2 4 3 3 3 3 3 3 1 2 2 4 4 2 0 4 6 3 2 1 6 7 6 6 5 4 2 1 1 0 0 1 2 4 4 2 4 7 9 11 12 12 12 11 12 12 12 11 10 10 11 10 9 9 9 10 10 11 12 12 13 14 15 15 15 17 18 18 19 20 20 19 18 18 17 16 15 15 14 14 14 14 15 15 15 15 16 15 15 14 13 11 10 10 9 9 10
4 4 4 3 3 3 3 2 2 3 2 5 5 2 0 3 5 4 3 4 6 6 4 5 4 2 2 1 1 2 3 3 2 2 2 5 10 11 13 14 14 14 14 14 15 15 15 14 14 16 16 15 14 14 14 15 15 15 16 16 17 18 19 19 21 23 23 23 24 24 24 23 23 22 21 20 20 18 17 16 15 15 15 15 15 15 15 16 16 16 16 15 13 12 10 9 9
4 3 2 2 3 3 3 4 3 2 4 6 4 3 1 2 5 5 5 6 5 7 6 6 6 5 4 2 1 1 2 3 5 5 5 8 11 13 15 16 16 17 17 19 20 19 20 19 19 21 20 18 18 17 17 18 19 19 19 19 21 21 22 24 25 26 25 25 26 26 25 26 25 25 25 25 24 23 21 19 18 17 17 16 16 16 16 16 16 17 17 17 17 15 13 11 11
3 2 3 3 3 4 2 3 1 2 4 3 3 2 1 5 7 6 7 7 6 6 6 7 8 8 6 4 3 2 2 4 5 6 6 6 9 12 15 16 17 19 20 21 22 22 23 22 22 23 22 20 20 20 20 21 22 22 22 22 23 24 24 25 26 26 25 25 25 26 27 27 27 27 27 27 26 24 22 22 21 20 19 18 18 17 16 17 17 17 17 17 18 18 17 16 14
2 2 3 3 2 3 3 4 2 3 3 2 3 2 2 5 5 6 7 7 5 6 5 5 6 7 7 5 1 1 3 6 5 6 6 6 8 12 15 16 18 19 20 21 22 22 23 23 23 24 24 22 21 22 22 23 24 24 23 24 24 24 25 25 25 25 24 24 24 26 26 27 27 27 27 26 25 23 22 22 21 21 20 19 18 18 17 17 17 17 17 17 18 19 19 19 18
2 3 4 3 3 2 3 4 2 4 4 3 4 2 3 3 2 5 7 6 5 4 5 4 4 4 4 2 1 1 4 5 5 6 6 6 9 13 15 17 18 18 19 20 21 21 22 23 23 24 24 23 23 23 23 24 25 24 23 23 23 23 23 24 24 24 24 24 25 26 27 27 27 27 26 26 25 24 23 23 22 22 22 21 20 20 19 18 17 17 17 17 18 19 19 19 19
1 2 4 2 2 3 1 3 4 2 3 3 3 3 4 3 4 5 4 3 3 2 1 1 4 3 2 2 3 4 5 5 6 6 6 6 9 13 15 17 17 18 19 20 21 21 22 23 23 24 25 24 23 24 24 24 23 23 23 23 23 23 24 24 25 25 25 26 26 27 28 28 28 28 27 27 26 26 26 25 24 24 24 23 23 23 23 22 21 21 21 20 21 22 22 21 21
1 1 1 2 3 5 4 1 1 3 1 3 2 3 5 3 4 5 4 0 2 2 0 3 5 3 2 5 6 6 5 5 6 6 6 7 9 12 14 16 18 20 21 21 21 21 22 23 24 25 25 24 24 23 23 23 23 24 25 25 25 25 26 27 27 27 27 27 28 28 29 29 29 30 29 29 28 28 28 28 28 27 26 26 25 25 25 25 24 24 24 25 25 25 25 24 24
3 2 3 2 2 4 3 0 3 4 0 4 2 3 5 2 2 5 3 4 6 5 4 4 5 4 4 6 6 5 6 6 6 6 6 8 10 13 14 17 20 21 22 22 22 22 23 24 24 25 25 24 23 23 23 24 24 26 27 27 27 27 28 28 28 28 28 28 29 29 30 30 31 31 31 30 30 30 31 31 31 31 29 29 29 28 28 27 27 27 27 27 26 26 25 26 26
3 2 2 1 2 1 2 1 1 1 2 4 4 4 3 3 4 3 4 9 9 8 7 6 7 7 6 7 6 6 6 5 5 6 5 7 11 13 16 19 21 22 22 22 23 23 24 25 24 25 25 24 24 24 25 25 26 27 27 27 28 28 28 28 28 29 29 30 31 30 31 31 31 31 32 32 32 32 33 33 33 33 32 31 31 31 31 31 30 31 31 30 29 28 28 28 28
3 0 1 1 3 3 1 1 2 2 2 3 4 5 3 6 6 6 10 12 11 10 9 8 9 9 7 7 7 7 7 6 6 6 5 7 11 14 17 21 22 22 22 23 24 24 25 25 24 25 24 24 24 24 26 26 27 27 27 28 28 29 29 29 29 30 30 31 31 31 31 31 31 32 32 32 33 33 33 33 33 34 34 33 33 33 33 32 33 33 33 34 32 31 31 31 30
2 1 0 1 1 1 0 1 1 3 2 2 1 4 6 6 4 7 10 10 10 11 10 9 9 9 8 7 7 7 7 7 6 7 6 8 13 16 18 21 22 23 22 23 24 24 24 23 23 24 24 24 25 25 26 27 27 27 28 28 29 29 29 29 30 30 31 31 30 31 31 31 31 32 32 33 33 33 32 32 32 33 34 34 33 33 32 32 34 34 34 34 34 33 33 32 31
4 4 3 4 3 3 2 3 2 2 2 3 3 3 8 6 3 6 6 6 8 8 8 8 8 9 8 6 7 7 7 7 7 7 6 9 14 17 19 21 22 23 23 23 23 23 23 23 23 24 24 25 25 25 26 26 27 28 29 29 29 29 29 29 30 30 30 30 30 30 30 30 31 31 31 32 32 32 32 31 31 31 32 33 33 32 31 31 32 34 34 34 34 34 33 32 32
Wind_Direction
141 156 178 238 346 16 48 56 78 333 75 83 283 224 258 216 145 187 249 255 220 242 213 176 136 135 149 187 204 203 191 180 178 132 214 240 227 226 224 232 260 297 316 317 314 332 338 341 343 336 327 328 327 327 331 333 337 338 339 338 337 337 336 336 335 334 333 332 330 328 327 324 323 323 324 324 323 320 317 317 312 313 318 316 312 306 302 300 296 292 291 291 290 289 289 299 286
138 150 175 176 17 53 165 64 97 330 46 9 281 185 251 327 101 217 212 202 201 236 243 195 154 111 32 178 194 231 254 221 196 187 252 254 242 235 229 241 266 301 310 312 313 330 339 341 345 342 334 330 326 327 330 332 336 338 338 337 337 336 336 335 335 334 333 332 330 329 327 325 322 324 326 325 323 322 319 317 316 317 318 317 312 307 304 298 294 292 293 293 289 287 287 297 283
134 139 133 160 29 46 85 40 90 43 61 296 276 233 228 154 218 229 214 204 214 255 277 198 127 136 90 7 225 195 266 252 220 225 280 236 233 257 238 247 274 300 306 308 312 329 338 342 349 348 339 330 326 328 331 333 336 338 337 337 337 336 336 336 335 335 334 333 332 331 329 327 324 326 328 326 324 322 320 320 318 317 316 316 311 307 306 298 293 291 292 291 286 286 285 293 285
127 119 46 158 60 34 62 40 128 121 105 218 276 272 212 193 224 238 234 228 234 296 335 121 30 213 139 263 241 200 264 263 226 197 238 225 228 279 248 257 285 297 307 311 314 327 336 342 352 354 346 336 330 331 333 335 337 338 339 338 338 337 337 336 337 337 336 336 334 333 332 331 327 327 328 326 324 323 323 323 319 316 316 316 313 310 309 303 296 292 294 292 285 286 284 288 287
109 70 55 149 91 50 90 74 110 108 185 194 185 275 232 211 230 239 258 278 252 233 122 113 309 275 153 225 194 179 242 262 236 203 215 254 248 274 262 273 289 304 316 318 319 324 335 340 346 352 352 346 337 335 336 337 339 340 340 340 339 339 339 339 339 339 339 338 337 335 334 333 330 327 328 326 324 326 326 324 321 318 318 317 316 313 312 308 300 297 299 295 286 283 282 285 287
109 74 64 90 86 116 117 110 128 200 222 173 164 261 246 220 220 219 275 309 270 198 156 140 217 286 284 249 205 208 215 110 188 204 218 265 278 272 270 279 291 314 325 323 321 322 334 336 338 345 350 352 344 338 340 339 340 341 341 343 342 342 342 342 342 342 342 340 339 337 334 334 332 329 327 324 324 326 325 324 322 320 319 318 315 311 311 308 303 299 296 292 287 282 278 278 283
132 91 47 70 56 39 102 154 182 230 239 168 179 248 257 235 203 168 322 329 302 285 141 197 186 113 263 276 277 236 205 188 171 200 218 243 292 275 273 281 295 314 328 329 326 329 330 329 334 338 343 351 350 340 341 342 342 343 344 345 345 345 345 344 345 344 343 341 340 337 335 334 332 331 327 322 322 325 324 323 321 320 319 317 314 310 310 307 302 297 293 290 287 281 274 271 276
107 114 19 78 44 24 87 154 217 210 223 216 213 237 256 229 173 136 160 144 232 279 243 253 212 165 270 345 268 246 207 212 208 202 208 228 288 288 286 289 299 310 323 328 330 329 327 326 328 330 335 345 351 346 341 343 344 345 346 347 349 348 347 346 345 344 343 342 340 337 335 334 333 332 329 324 322 324 324 322 321 320 317 315 313 311 311 308 300 295 293 291 289 281 272 267 272
64 53 79 75 76 37 41 333 273 239 247 267 251 246 254 193 152 128 170 258 297 240 252 243 186 194 286 350 259 277 226 216 214 207 205 220 273 303 299 299 303 308 314 321 326 323 323 322 321 325 330 338 348 353 346 344 346 346 347 349 350 349 349 347 345 345 343 341 339 337 335 336 335 334 332 328 326 325 323 321 321 320 317 316 314 312 312 310 303 294 291 289 288 280 271 268 272
40 30 108 67 80 48 345 289 265 266 252 261 266 242 224 165 149 126 163 251 253 191 270 230 176 232 276 302 263 304 244 212 205 210 211 215 247 303 307 313 307 305 310 315 318 315 316 314 314 319 324 332 342 351 351 348 346 346 346 348 350 349 348 346 346 344 342 341 338 337 337 337 336 335 333 328 327 325 324 323 322 321 317 315 313 312 311 309 304 296 290 286 284 278 274 272 273
36 4 87 78 72 84 264 243 267 273 273 301 289 242 201 152 135 134 164 273 237 203 275 164 186 230 212 295 256 282 250 207 204 213 217 217 249 305 316 315 300 299 307 313 310 307 308 308 309 313 318 329 336 344 350 350 347 345 343 346 349 347 347 345 343 342 341 340 337 338 338 338 337 335 333 329 329 328 327 325 323 322 319 315 312 311 311 308 302 294 289 284 281 276 271 269 272
76 359 59 89 127 191 207 222 274 287 303 316 276 254 181 133 126 196 194 240 227 230 249 187 189 174 123 296 262 292 272 217 211 217 220 220 255 305 314 293 280 291 304 311 309 309 309 305 305 308 316 326 333 339 346 350 347 345 341 343 347 346 348 345 342 341 340 340 338 340 341 340 337 335 335 334 335 333 330 328 325 323 319 316 313 314 315 312 304 291 286 285 279 272 268 263 266
107 130 84 96 163 158 146 197 280 318 316 263 231 253 141 130 173 204 173 200 207 219 254 211 169 104 196 259 290 311 280 231 214 208 221 225 256 280 294 286 280 287 299 309 312 317 312 307 306 307 315 323 329 337 344 349 347 344 341 342 346 346 348 346 343 341 341 343 342 343 344 341 339 338 337 339 340 337 336 333 328 326 322 317 314 317 321 319 312 294 287 289 278 267 264 260 259
126 141 106 111 81 114 154 204 296 343 287 258 241 186 145 145 193 180 145 206 238 204 255 216 156 120 246 256 325 306 287 244 208 204 222 221 241 261 277 290 293 286 291 301 307 315 315 313 312 312 316 320 327 335 343 348 347 344 342 343 346 347 349 347 345 342 342 345 345 347 347 343 341 341 342 344 343 342 343 340 334 332 329 320 315 319 325 326 320 304 296 291 274 263 260 258 253
126 125 90 106 55 8 182 209 158 138 254 246 59 160 158 220 135 137 173 207 258 218 228 229 162 179 212 170 236 257 292 242 199 207 219 219 238 257 269 285 296 289 288 295 304 312 315 315 318 321 319 321 327 334 342 348 347 343 344 343 346 347 348 348 345 343 343 346 347 349 349 346 341 342 347 347 347 346 346 347 342 337 333 326 320 320 325 329 324 314 304 290 271 258 253 255 249
115 112 70 91 107 280 204 188 137 135 255 230 318 131 144 265 130 141 225 184 272 276 36 218 193 201 181 168 210 247 310 211 196 209 214 221 237 251 265 277 287 288 286 293 304 308 310 313 322 326 322 325 327 335 343 346 344 343 344 341 344 344 344 347 345 344 344 347 349 350 352 350 344 345 350 349 350 348 347 352 350 341 336 332 329 326 327 328 323 318 306 289 273 259 249 253 244
60 81 71 76 165 214 198 181 175 176 265 256 299 186 136 288 281 191 263 101 264 281 307 242 231 200 192 203 222 273 317 202 197 207 212 222 237 250 262 269 279 285 286 292 303 304 304 308 319 330 331 331 330 338 343 343 342 342 341 337 339 340 341 345 345 345 346 349 350 351 354 353 348 347 350 350 351 348 348 357 356 345 341 339 334 332 331 329 323 318 305 289 282 265 247 245 237
50 80 96 161 187 205 188 180 198 181 322 277 258 201 143 216 290 250 351 16 345 303 282 275 279 257 234 239 244 278 287 201 199 206 213 224 235 248 259 269 278 282 288 296 302 301 299 302 314 330 336 334 333 338 341 341 339 339 336 334 336 336 339 342 346 348 348 351 351 353 356 356 351 347 352 352 352 351 351 359 359 350 350 348 340 339 337 334 328 320 303 290 285 266 245 235 235
86 108 105 234 201 206 197 179 199 169 42 298 222 352 156 183 235 25 253 287 345 326 289 300 285 271 259 252 248 259 249 206 204 207 217 226 234 246 258 270 279 286 295 298 300 300 298 301 308 323 331 331 331 332 337 336 337 339 335 336 337 336 338 341 348 351 351 353 353 355 357 359 354 348 353 354 352 353 354 358 360 356 357 355 347 346 346 345 335 320 296 281 276 270 270 236 233
134 116 129 245 214 212 221 190 201 196 133 108 182 41 200 222 229 305 257 284 305 269 264 266 259 266 267 263 242 234 223 207 207 211 220 231 239 246 257 269 281 295 303 297 300 302 298 299 303 315 323 320 323 328 332 334 337 340 336 339 339 337 338 342 350 354 356 356 356 358 357 1 359 353 354 354 351 353 355 356 359 1 2 1 351 350 359 7 345 314 290 279 268 269 300 286 223
122 118 180 228 202 174 208 197 215 219 154 132 159 121 268 257 215 176 116 318 299 255 235 222 236 247 249 275 246 201 202 204 209 216 226 236 244 250 258 270 281 295 301 296 298 301 297 298 300 308 315 315 320 327 329 330 336 340 338 342 344 342 341 344 352 358 1 0 1 1 359 2 3 1 357 356 354 355 357 357 2 7 5 6 359 356 7 19 7 339 306 290 269 249 277 255 223
86 78 196 211 188 126 206 207 192 147 116 113 136 148 224 263 240 184 157 228 255 234 215 209 224 232 228 267 238 183 194 209 215 221 231 239 246 255 262 272 282 292 296 292 294 295 290 293 294 301 311 316 322 326 326 327 334 338 338 341 348 348 346 348 353 360 3 3 4 5 3 3 5 6 0 358 356 354 356 358 5 11 8 8 6 359 3 17 21 8 346 323 292 245 240 237 236
99 295 248 220 206 94 358 342 344 134 116 139 173 197 159 51 293 215 174 221 231 224 207 198 224 234 219 208 152 171 194 211 220 226 232 239 248 257 266 276 283 291 291 286 288 284 280 285 288 295 306 314 321 322 321 325 332 333 334 339 348 351 352 352 353 359 3 3 3 5 6 5 7 9 5 2 358 354 356 359 5 12 11 9 8 1 0 17 30 18 8 7 358 254 227 224 236
90 192 241 212 188 82 344 3 358 162 149 188 193 176 160 172 280 355 230 240 238 243 236 213 240 264 201 182 171 191 207 214 225 233 238 244 252 261 270 276 282 288 285 283 286 280 277 281 283 292 301 309 314 315 318 326 329 330 334 336 343 349 352 354 353 356 360 1 1 2 5 5 7 9 9 7 1 353 354 359 6 13 14 9 9 8 5 16 29 26 27 21 11 238 210 214 235
79 168 206 119 89 342 327 16 26 134 171 220 165 230 235 213 214 334 259 254 250 253 254 245 250 279 206 202 211 216 221 226 234 244 247 250 256 264 268 273 279 282 282 285 286 281 280 279 282 290 295 305 308 310 317 324 326 330 335 333 337 342 344 351 352 353 354 357 358 358 1 3 5 7 8 8 3 354 352 359 8 14 17 12 10 14 10 15 29 37 38 31 33 102 203 208 214
143 142 151 90 44 337 348 3 352 340 253 284 215 285 278 226 219 272 261 265 294 290 278 254 229 235 236 223 228 221 227 235 238 250 257 258 260 264 267 272 276 278 283 286 286 285 283 276 282 289 289 298 303 308 318 322 327 330 333 332 332 334 337 345 348 349 350 351 354 356 357 360 2 3 4 6 4 358 354 359 7 14 19 16 14 19 16 16 30 39 37 31 40 71 147 181 189
126 107 108 81 34 322 19 161 323 324 259 310 234 265 285 281 310 267 267 302 332 327 316 261 179 221 239 239 251 239 244 244 242 259 272 271 262 261 267 272 275 279 283 286 293 296 283 275 280 285 285 292 300 310 320 323 327 329 331 332 331 332 335 342 346 346 347 347 349 352 354 357 360 0 1 3 4 2 359 360 5 12 17 19 19 22 24 22 28 36 36 32 39 65 101 139 165
103 101 98 35 2 316 24 33 326 338 227 212 202 245 299 353 291 238 267 333 334 326 314 319 177 234 254 261 276 267 258 254 253 265 268 270 266 264 270 274 279 280 281 288 300 295 282 279 280 282 284 289 301 313 319 322 327 328 328 330 331 332 333 339 344 344 345 346 347 349 351 354 357 360 0 360 2 2 0 1 3 8 13 17 20 25 30 27 28 36 37 36 40 53 61 62 101
93 81 106 355 2 19 350 349 303 332 199 214 202 312 330 243 238 247 276 330 337 10 337 330 293 276 289 282 290 276 268 270 268 261 258 266 272 273 276 280 282 278 279 286 288 290 291 286 280 281 286 292 304 314 317 322 327 327 326 328 330 331 331 336 342 342 342 345 347 349 350 353 355 358 0 360 360 0 0 0 1 5 9 12 19 26 31 29 30 38 36 32 34 43 51 52 78
92 48 107 1 3 7 332 343 295 315 115 284 301 330 300 254 251 259 296 325 324 332 313 322 319 304 303 293 296 281 273 271 266 263 262 270 276 276 278 282 281 276 276 275 277 293 300 287 284 286 290 297 306 312 317 322 325 324 323 325 327 328 331 335 341 340 339 343 347 349 350 352 354 355 359 360 359 359 360 359 359 2 4 7 14 22 32 32 31 36 36 32 31 39 51 49 53
90 45 87 27 351 273 314 351 326 337 121 3 50 242 273 276 276 278 314 330 232 303 302 313 317 308 306 299 291 283 277 266 265 271 274 277 278 278 279 279 278 273 270 269 273 290 294 289 292 295 299 303 308 313 317 320 321 320 322 325 327 328 332 337 340 339 340 344 344 349 350 350 352 352 355 359 359 358 358 359 358 359 360 1 6 15 28 33 35 38 38 36 33 41 50 42 36
39 74 300 345 114 268 309 352 10 40 283 7 66 220 272 278 277 284 336 33 66 341 305 304 304 297 298 295 291 289 288 285 282 281 283 285 285 284 282 279 277 273 268 266 269 281 290 295 295 299 306 306 310 312 315 317 318 321 324 327 330 332 338 340 341 341 344 345 345 349 350 349 351 350 352 355 358 358 358 359 357 357 357 358 0 5 16 27 32 38 41 40 37 41 46 37 29
354 66 230 284 109 286 312 17 24 41 314 348 44 245 276 266 266 278 303 26 28 341 297 292 288 286 286 286 294 295 294 305 300 291 298 308 300 293 285 280 277 271 263 256 260 274 285 293 292 300 308 307 312 312 314 317 320 324 327 329 333 339 344 343 343 345 345 345 347 351 351 351 349 348 350 351 355 357 358 359 358 358 358 359 0 359 7 21 25 30 38 41 42 44 47 45 36
320 27 94 239 186 252 304 328 354 20 24 336 2 261 257 259 277 291 288 335 343 298 277 278 276 279 281 283 291 288 289 301 292 291 314 329 306 300 289 283 276 259 242 239 248 266 280 289 291 301 309 311 314 314 318 322 325 330 332 335 338 344 347 345 347 348 347 347 348 350 351 352 350 349 349 348 352 355 357 359 358 0 2 1 3 1 3 14 21 26 31 35 39 42 44 46 42
226 243 121 297 288 227 267 278 333 13 19 320 323 275 267 274 283 286 285 318 301 268 265 270 272 277 278 287 284 278 287 277 270 284 310 318 299 312 299 292 275 232 219 229 243 264 280 293 298 304 311 316 315 318 325 328 332 336 337 341 344 348 349 349 352 352 351 348 346 348 350 352 354 353 351 349 350 352 355 358 359 1 2 2 4 5 6 7 11 16 21 26 28 32 35 33 30
160 179 145 144 282 259 248 263 304 16 1 288 258 261 278 286 289 286 290 326 291 266 275 271 270 274 271 280 275 273 281 268 275 290 292 281 282 333 325 333 264 206 210 231 250 273 289 299 304 316 323 320 320 325 330 331 338 340 341 346 349 353 354 355 0 359 356 353 349 350 352 354 356 358 357 353 353 353 354 354 357 1 2 4 3 6 8 4 1 0 5 12 15 22 24 20 17
120 111 92 113 227 287 275 293 316 17 355 272 243 269 280 281 283 285 297 330 306 271 271 268 265 263 259 259 261 267 264 263 286 295 256 234 225 199 257 88 178 201 220 247 267 283 296 303 310 330 338 328 327 331 332 335 341 341 341 345 346 349 353 356 3 5 5 5 3 359 358 356 355 358 359 357 357 357 357 355 354 356 360 4 5 5 4 2 359 355 355 359 2 7 8 12 10
84 102 75 43 209 265 272 305 310 347 355 276 330 316 286 279 282 286 303 322 290 251 235 253 253 251 253 247 254 262 266 279 300 293 241 221 228 216 214 205 213 223 233 263 283 291 297 306 319 336 342 338 337 336 335 338 340 337 336 338 339 343 348 351 358 5 7 8 7 3 0 356 352 354 354 355 357 357 0 1 357 355 355 358 2 5 4 4 5 1 358 356 356 359 0 5 7
67 90 90 15 294 279 295 317 321 349 338 280 351 342 292 285 287 284 281 259 262 247 221 231 232 244 252 234 242 256 272 291 304 285 243 232 246 242 239 235 238 252 256 272 290 304 311 317 325 334 339 342 344 341 340 340 338 336 335 334 336 339 344 349 356 3 5 5 6 6 4 360 355 353 352 352 354 354 358 1 3 2 357 355 357 360 3 5 6 5 5 0 356 357 358 0 5
60 79 102 281 316 0 314 306 324 329 288 284 332 327 289 296 311 294 273 245 272 281 260 250 232 231 238 233 235 235 247 260 269 271 256 249 259 256 251 246 249 263 275 293 303 309 314 321 326 332 338 343 346 344 344 345 345 344 341 338 338 339 346 355 0 6 8 6 8 12 10 7 4 1 357 354 352 352 352 355 0 4 3 359 356 357 359 0 1 2 4 4 0 358 358 357 358
4 99 124 172 287 304 254 286 322 327 355 347 345 331 297 318 341 295 302 337 309 315 307 267 246 241 252 275 268 232 225 226 231 249 256 264 275 277 270 258 263 277 301 317 320 316 314 322 327 333 342 346 349 349 353 356 356 355 350 347 348 352 359 6 6 4 6 7 8 12 14 12 12 11 7 3 360 356 352 352 354 357 3 4 359 360 359 358 358 356 355 359 0 358 356 351 349
331 227 165 162 177 221 274 312 342 15 21 9 24 3 294 316 315 258 301 349 313 327 342 257 265 284 274 271 271 255 242 234 227 239 257 277 289 293 294 318 325 328 340 335 330 325 322 329 335 344 353 358 1 1 6 6 1 359 358 1 4 2 2 7 4 358 358 2 5 9 14 17 16 16 16 13 11 8 3 359 356 354 356 359 359 360 1 360 358 355 352 350 350 352 351 345 342
12 220 174 152 141 150 339 352 13 35 302 319 46 89 259 315 301 245 304 340 307 316 313 269 289 298 271 253 258 261 258 251 241 250 265 279 296 306 320 2 7 360 4 356 344 340 338 344 353 3 11 19 22 16 11 2 356 359 6 16 19 11 4 3 3 2 1 3 7 9 14 20 20 20 21 20 19 17 16 12 7 4 0 358 356 355 357 357 357 357 352 348 346 342 341 338 334
247 191 135 133 123 147 136 68 69 242 274 335 22 79 206 297 275 256 307 332 307 304 278 292 321 303 281 266 258 253 249 245 241 256 276 285 309 328 345 19 32 34 36 35 31 26 22 26 37 45 47 45 35 18 3 356 358 8 22 33 37 31 19 14 14 16 14 11 15 16 17 22 25 26 24 22 22 19 18 18 15 13 9 6 2 358 356 353 353 354 350 347 343 337 334 331 329
238 186 140 149 143 147 133 92 84 305 344 320 330 27 169 265 277 306 358 199 268 265 243 267 307 314 317 273 254 249 245 242 231 241 275 302 342 20 44 59 69 73 72 73 71 70 73 78 84 81 70 56 38 24 15 17 25 33 39 45 48 45 37 34 32 30 27 23 24 24 23 25 27 29 29 25 24 20 18 17 17 17 15 14 11 6 3 357 354 351 348 344 337 333 329 321 321
178 150 105 76 81 86 82 83 109 27 6 255 275 2 64 266 280 311 25 216 238 243 246 258 270 284 291 304 59 127 255 288 227 232 260 316 45 70 81 84 86 85 86 87 86 88 89 89 90 84 73 65 59 54 51 55 57 54 53 52 53 51 47 45 44 40 36 32 31 30 28 28 27 28 28 27 25 22 20 18 17 19 18 18 17 13 10 4 360 355 351 348 340 335 329 316 311
130 114 79 54 33 40 56 49 84 58 316 253 263 310 190 277 278 230 197 217 203 195 228 250 249 243 233 264 33 64 53 53 91 128 109 88 84 87 92 92 91 92 94 95 94 96 95 94 93 87 81 77 74 72 70 69 66 62 61 58 57 55 51 48 46 43 39 37 36 35 33 33 32 30 28 28 25 22 21 21 19 20 19 19 19 19 17 12 8 4 359 355 350 344 337 328 315
102 94 71 42 345 9 26 355 36 85 268 262 263 283 168 224 262 239 234 249 212 178 181 186 180 169 165 150 84 67 60 77 93 95 96 90 84 84 89 90 92 95 96 95 97 99 98 97 95 90 84 80 78 76 74 72 69 67 65 64 63 60 57 54 52 50 46 43 41 38 37 35 34 32 30 29 27 23 22 21 20 19 18 18 18 19 19 17 15 13 10 7 2 357 350 343 333
68 68 59 47 350 0 359 323 351 202 247 268 266 277 234 232 246 247 253 259 237 207 190 174 173 174 177 165 129 90 96 106 100 94 91 85 83 85 89 92 93 94 95 96 99 100 98 94 91 88 83 81 80 77 75 74 71 70 69 68 67 64 62 60 58 55 52 49 46 43 41 38 36 35 32 31 31 28 26 25 25 24 22 21 19 18 17 16 18 18 18 18 15 10 5 359 351
87 118 90 84 61 32 317 282 301 274 262 281 284 285 277 272 265 238 238 249 239 228 230 214 190 180 184 181 145 37 97 104 102 97 90 90 98 99 99 99 98 97 98 99 100 99 96 91 88 88 85 84 82 80 78 77 74 73 72 70 69 66 64 62 60 58 55 53 50 48 46 44 42 41 38 36 35 34 34 32 31 31 29 27 23 21 20 17 17 18 19 21 21 18 15 12 8
131 162 117 119 146 139 256 247 243 283 294 298 300 279 202 230 269 229 232 259 274 254 247 246 241 231 225 246 312 112 120 104 100 99 95 101 109 108 107 105 103 102 101 100 99 97 94 90 89 89 88 86 84 82 81 79 77 76 74 73 70 69 67 65 63 60 58 56 54 52 50 47 46 45 43 41 39 39 40 39 37 36 34 32 30 27 26 24 21 19 18 19 18 16 17 18 15
189 160 96 90 172 147 166 194 191 239 318 301 280 235 217 218 267 284 289 287 302 308 284 201 222 237 250 240 198 156 140 118 114 112 108 115 114 113 113 110 107 104 101 99 97 97 95 93 93 91 90 89 87 85 82 81 80 77 75 74 72 71 70 68 66 63 61 59 57 55 53 50 49 48 47 46 44 43 44 44 43 41 38 36 35 33 32 31 30 28 25 22 18 16 16 17 16
154 120 145 225 152 117 112 209 292 66 24 282 264 255 294 319 281 310 5 167 257 326 190 183 203 203 185 204 186 162 157 140 133 135 133 131 121 116 115 113 108 103 98 97 96 98 99 98 97 95 93 92 89 87 85 83 81 78 76 74 72 71 70 68 67 65 64 62 60 59 56 54 52 51 50 49 49 49 49 48 48 46 43 41 39 37 36 35 34 34 32 28 24 20 19 20 18
105 123 214 220 115 96 99 6 350 42 231 279 305 261 294 334 273 318 20 185 227 245 224 225 231 216 208 209 192 175 171 154 150 149 139 133 124 118 114 109 105 101 99 99 99 101 101 100 100 98 95 92 90 89 87 84 81 79 76 74 72 71 70 69 68 67 66 64 62 59 57 55 53 52 51 50 51 51 50 49 48 47 45 43 41 40 38 37 37 37 36 33 29 25 24 26 23
84 151 188 120 132 122 68 126 266 358 282 288 309 292 263 214 226 263 216 201 210 221 220 228 228 216 213 210 199 186 171 160 162 156 144 133 125 119 113 107 104 103 102 103 103 104 102 100 99 97 95 94 92 91 88 84 82 80 77 76 74 72 71 69 68 66 65 63 60 58 56 55 53 52 51 50 50 49 48 47 46 45 44 42 40 39 38 37 37 35 33 31 28 26 26 27 26
42 80 355 32 154 166 134 143 176 203 258 275 313 325 271 230 216 195 207 208 195 197 205 212 216 214 208 197 187 182 173 173 172 159 150 131 120 118 114 109 107 106 106 106 106 105 102 100 99 97 96 95 92 90 88 85 83 82 81 78 75 73 71 68 67 65 63 61 59 57 55 53 52 51 50 49 49 47 46 45 44 42 40 39 38 36 34 33 33 31 29 26 24 24 24 22 22
112 136 223 284 157 139 185 296 128 143 178 194 282 307 269 247 211 188 210 214 198 195 195 202 215 217 212 196 183 177 172 178 173 156 146 125 117 115 111 110 110 109 108 107 106 105 103 101 100 97 95 92 89 88 88 87 86 85 82 79 76 73 70 68 66 64 63 61 59 58 56 54 53 51 49 49 48 47 46 45 44 41 38 37 36 34 32 29 27 26 24 23 22 22 21 19 17
154 164 183 177 151 119 126 295 316 103 152 180 164 269 270 258 204 198 217 216 212 210 197 199 213 217 213 198 187 181 170 175 172 153 140 127 123 120 115 113 112 109 107 106 106 106 103 100 98 96 93 89 87 87 87 87 87 84 81 78 76 73 71 69 66 64 63 61 59 58 56 55 54 51 49 48 47 45 45 44 44 40 36 34 34 34 31 27 23 21 20 20 19 19 18 16 15